Skip Page Navigation
NASA JPL Caltech
NASA Logo - Jet Propulsion Laboratory + View the NASA Portal
+ Center for Near-Earth Object Studies
JPL Home Earth Solar System Stars & Galaxies Technology
JPL Solar System Dynamics
BODIES ORBITS EPHEMERIDES TOOLS PHYSICAL DATA DISCOVERY FAQ SITE MAP
JPL Small-Body Database Browser
Search: [ help ]  
183531 (2003 FA132)
Classification: Main-belt Asteroid          SPK-ID: 2183531
Ephemeris | Orbit Diagram | Orbital Elements | Mission Design | Physical Parameters | Discovery Circumstances | Close-Approach Data ]

[ show orbit diagram ]
Orbital Elements at Epoch 2459396.5 (2021-Jul-01.0) TDB
Reference: JPL 12 (heliocentric ecliptic J2000)
 Element Value Uncertainty (1-sigma)   Units 
e .1212689624568008 5.6436e-08  
a 3.085506485552395 3.4625e-08 au
q 2.711330315395726 1.8213e-07 au
i 6.392712263610004 6.5183e-06 deg
node 176.504652426134 5.2047e-05 deg
peri 239.3882519366758 6.053e-05 deg
M 261.2747487521106 3.6357e-05 deg
tp 2459939.392534013688
(2022-Dec-25.89253401)
0.00020675 TDB
period 1979.648669155509
5.42
3.3323e-05
9.123e-08
d
yr
n .1818504493292595 3.061e-09 deg/d
Q 3.459682655709064 3.8824e-08 au
  Orbit Determination Parameters
   # obs. used (total)      235  
   data-arc span      7561 days (20.70 yr)  
   first obs. used      2000-09-24  
   last obs. used      2021-06-07  
   planetary ephem.      DE441  
   SB-pert. ephem.      SB441-N16  
   condition code      0  
   norm. resid. RMS      .62718  
   source      ORB  
   producer      Otto Matic  
   solution date      2021-Jul-09 15:22:27  

Additional Information
 Earth MOID = 1.72922 au 
 Jupiter MOID = 1.92563 au 
 T_jup = 3.206 
[ show covariance matrix ]

Ephemeris | Orbit Diagram | Orbital Elements | Mission Design | Physical Parameters | Discovery Circumstances | Close-Approach Data ]

Physical Parameter Table
Parameter Symbol Value Units Sigma Reference Notes
absolute magnitude H 15.80   n/a E2021B55  

183531 (2003 FA132)          Discovered 2003-Mar-27 by Spacewatch at Kitt Peak
Reference: 20080420/Numbers.arcLast Updated: 2008-04-23

[ show close-approach data ]
Ephemeris | Orbit Diagram | Orbital Elements | Mission Design | Physical Parameters | Discovery Circumstances | Close-Approach Data ]
ABOUT SSD CREDITS/AWARDS PRIVACY/COPYRIGHT GLOSSARY LINKS
FirstGov 2021-Aug-01 15:32 UT
(server date/time)  
NASA Home Page
Site Manager:   Ryan S. Park
Webmaster  Alan B. Chamberlin